Weather History for Hattiesburg, MS

Change the Weather History Date:

Thursday, December 6, 2012

  Actual Average Record
Temperature  
Mean Temperature 67 °F 52 °F  
Max Temperature 77 °F 63 °F 83 °F (2013)
Min Temperature 57 °F 41 °F 27 °F (2010)
Degree Days  
Heating Degree Days 0 13  
Month to date heating degree days 7 77  
Since 1 July heating degree days 392 405  
Cooling Degree Days 2 1  
Month to date cooling degree days 8 6  
Year to date cooling degree days 2722 2396  
Growing Degree Days 16 (Base 50)    
Moisture  
Dew Point 58 °F    
Average Humidity 74    
Maximum Humidity 97    
Minimum Humidity 50    
Precipitation  
Precipitation 0.00 in 0.16 in 3.18 in (1972)
Month to date precipitation 0.20 0.93  
Year to date precipitation 61.04 55.19  
Sea Level Pressure  
Sea Level Pressure 30.02 in    
Wind  
Wind Speed 2 mph (ESE)    
Max Wind Speed 14 mph    
Max Gust Speed -    
Visibility 6 miles    
Events Fog    
T = Trace of Precipitation, MM = Missing Value Source: NWS Daily Summary

Daily Weather History Graph

Daily Weather History Graph

Search for Another Location

Airport:

Trip Planner

Search our weather history database for the weather conditions in past years. The results will help you decide how hot, cold, wet, or windy it might be!

Date:

Astronomy

Dec. 06, 2012 Rise Set
Actual Time 6:42 AM CST 4:54 PM CST
Civil Twilight 6:15 AM CST 5:20 PM CST
Nautical Twilight 5:45 AM CST 5:50 PM CST
Astronomical Twilight 5:16 AM CST 6:20 PM CST
Moon No Moon Rise 11:56 AM CST (12/6)
Length of Visible Light 11h 04m
Length of Day
10h 11m
Waning Gibbous, 49% of the Moon is Illuminated
Dec 6
Waning Gibbous
Dec 13
New
Dec 19
First Quarter
Dec 28
Full
Jan 4
Last Quarter

Hourly Weather History & Observations

Time (CST) Temp. Dew Point Humidity Pressure Visibility Wind Dir Wind Speed Gust Speed Precip Events Conditions
12:42 AM 60.8 °F 59.0 °F 94% 30.06 in 2.5 mi Calm Calm - 0.01 in   Mostly Cloudy
12:53 AM 61.0 °F 59.0 °F 93% 30.05 in 1.0 mi Calm Calm - 0.01 in   Mostly Cloudy
1:02 AM 62.6 °F 60.8 °F 94% 30.06 in 3.0 mi Calm Calm - N/A   Overcast
1:53 AM 63.0 °F 60.1 °F 90% 30.04 in 5.0 mi Calm Calm - N/A   Overcast
2:53 AM 62.1 °F 60.1 °F 93% 30.04 in 5.0 mi Calm Calm - N/A   Overcast
3:53 AM 61.0 °F 59.0 °F 93% 30.02 in 2.5 mi Calm Calm - N/A   Mostly Cloudy
4:00 AM 60.8 °F 59.0 °F 94% 30.03 in 0.8 mi Calm Calm - N/A   Mostly Cloudy
4:08 AM 59.0 °F 57.2 °F 94% 30.03 in 0.5 mi Calm Calm - N/A Fog Fog
4:18 AM 59.0 °F 57.2 °F 94% 30.03 in 0.2 mi Calm Calm - N/A Fog Fog
4:29 AM 60.8 °F 57.2 °F 88% 30.02 in 0.5 mi Calm Calm - N/A Fog Fog
4:53 AM 61.0 °F 59.0 °F 93% 30.02 in 0.8 mi Calm Calm - N/A   Mist
5:07 AM 60.8 °F 59.0 °F 94% 30.03 in 0.2 mi Calm Calm - N/A Fog Fog
5:53 AM 60.1 °F 57.9 °F 93% 30.04 in 0.2 mi Calm Calm - N/A Fog Fog
6:53 AM 59.0 °F 57.9 °F 96% 30.05 in 0.2 mi Calm Calm - N/A Fog Fog
7:53 AM 59.0 °F 57.9 °F 96% 30.05 in 0.2 mi Calm Calm - N/A Fog Fog
8:31 AM 60.8 °F 59.0 °F 94% 30.06 in 1.0 mi Calm Calm - N/A   Mist
8:46 AM 60.8 °F 59.0 °F 94% 30.06 in 2.5 mi Calm Calm - N/A   Overcast
8:53 AM 61.0 °F 59.0 °F 93% 30.05 in 4.0 mi East 3.5 mph - N/A   Mostly Cloudy
9:09 AM 60.8 °F 59.0 °F 94% 30.06 in 6.0 mi ESE 4.6 mph - N/A   Scattered Clouds
9:53 AM 66.9 °F 60.1 °F 79% 30.06 in 10.0 mi Calm Calm - N/A   Scattered Clouds
10:53 AM 72.0 °F 60.1 °F 66% 30.04 in 10.0 mi East 5.8 mph - N/A   Partly Cloudy
11:53 AM 75.9 °F 55.9 °F 50% 30.00 in 10.0 mi SSE 6.9 mph - N/A   Partly Cloudy
12:53 PM 75.0 °F 55.9 °F 51% 29.98 in 10.0 mi SSE 10.4 mph - N/A   Scattered Clouds
1:53 PM 73.9 °F 55.0 °F 52% 29.96 in 10.0 mi SE 8.1 mph - N/A   Partly Cloudy
2:53 PM 73.9 °F 55.0 °F 52% 29.96 in 10.0 mi ESE 4.6 mph - N/A   Scattered Clouds
3:53 PM 72.0 °F 55.9 °F 57% 29.96 in 10.0 mi Calm Calm - N/A   Overcast
4:53 PM 66.9 °F 60.1 °F 79% 29.96 in 10.0 mi Calm Calm - N/A   Mostly Cloudy
5:53 PM 68.0 °F 59.0 °F 73% 29.96 in 10.0 mi Calm Calm - N/A   Overcast
6:53 PM 64.9 °F 59.0 °F 81% 29.98 in 10.0 mi Calm Calm - N/A   Scattered Clouds
7:53 PM 61.0 °F 57.0 °F 87% 29.98 in 10.0 mi Calm Calm - N/A   Clear
8:53 PM 59.0 °F 55.9 °F 90% 29.99 in 10.0 mi Calm Calm - N/A   Partly Cloudy
9:53 PM 57.0 °F 54.0 °F 89% 29.99 in 10.0 mi Calm Calm - N/A   Clear
10:53 PM 59.0 °F 55.9 °F 90% 29.99 in 10.0 mi Calm Calm - N/A   Overcast
11:53 PM 60.1 °F 55.9 °F 86% 29.98 in 10.0 mi Calm Calm - N/A   Overcast